星链-6215 (STARLINK-6215 )

导读 | 豆包AI

STARLINK-6215是美国SpaceX公司星链(Starlink)星座的成员卫星,于2023年7月16日发射升空。星链项目旨在构建全球低轨宽带卫星互联网,为全球用户提供高速互联网接入服务。该卫星采用量产化设计,搭载Ku/Ka波段通信载荷与氪工质霍尔推进器,具备自主避撞能力,运行在近地轨道,设计寿命5-7年,退役后将主动离轨再入大气层烧毁。

Basic Information
目录编号:
57367
目录名称:
STARLINK-6215
国际标识:
2023-099AR
轨道中心:
EARTH
卫星名称:
星链-6215
卫星全名:
星链-6215 (STARLINK-6215 )
卫星状态:
在轨 (已飞行1019 天)
发射日期:
2023-07-16 UTC
国别 :
美国 (US)
星等 :
--
Orbit Information
数据来源 国际轨道数据 AOE轨道数据
星历时间 2026-04-30T05:07:59+0800
11小时前
查看轨道信息
2026-04-30T08:00:00+0800
8小时前
查看轨道信息
半长轴 6861.05km 6861.169km
偏心率 0.0002068 0.0001966
轨道倾角 43.003° 43.007°
近地点辐角 261.515° 273.327°
升交点赤经 293.980° 293.314°
平近点角 98.547° 24.401°
近地点 481.494km 481.683km
远地点 484.332km 484.381km
周期 94.264分钟 94.266分钟
每日圈数 15.276255 15.27586
Detailed Information
固有亮度:
5
最大亮度:
2.5
卫星平台:
Starlink v1.5
覆盖范围:
全球
运营商:
太空探索技术公司
运营商所在国:
美国
制造商(研发单位):
太空探索技术公司
制造商所在国:
美国
使用方式:
暂无
Satellite Introduction
星链(Starlink)计划是由太空探索技术公司(SpaceX)提出的一个巨型低轨卫星互联网星座项目,计划在2019年至2024年间在太空搭建由约1.2万颗卫星组成的“星链”网络,其中1584颗将部署在地球上空550千米处的近地轨道,并从2020年开始工作。该卫星仍在工作。
2D Orbit Map
3D Orbit Map
Orbit Altitude Analysis Chart
Orbit Inclination Analysis Chart
Orbit Comprehensive Analysis Chart
View Comprehensive Chart